Flag for U.S.A. Weather past 2 weeks in El Paso, Texas, U.S.A.

Now
62 °F

Passing clouds.


Feels Like: 62 °F
Forecast: 54 / 82 °F
Wind: 8 mph from East

Location: El Paso International Airport


UV Index: 7 (High)

Visibility: 10 mi


Pressure: 29.93 "Hg

Humidity: 29%

Dew point: 29 °F

Location of El PasoLocation

Historic Weather in El Paso

°F

El Paso temperature yesterday

Maximum temperature yesterday: 81 °F (at 5:51 PM)
Minimum temperature yesterday: 54 °F (at 6:51 AM)
Average temperature yesterday: 70 °F

Past Weeks' High & Low Weather Summary

 TemperatureHumidityPressure
High87 °F (Apr 9, 4:51 PM)46% (Apr 14, 7:51 AM)30.22 "Hg (Apr 14, 7:51 AM)
Low38 °F (Apr 15, 6:51 AM)1% (Apr 10, 4:51 PM)29.54 "Hg (Apr 13, 5:51 PM)
Average65 °F16%29.84 "Hg
* Reported Apr 3 12:51 AM — Apr 18 12:51 AM, El Paso, Weather by CustomWeather, © 2014

Note: Actual official high and low records may vary slightly from our data, if they occured in-between our weather recording intervals... More about our weather records

Advertising

Historic Weather Conditions — Data for Previous 24 hours

 ConditionsComfort  
Time TempWeatherWind HumidityBarometerVisibility
12:51 AM
Apr 18
64 °FPassing clouds.5 mph27%29.93 "Hg10 mi
11:51 PM
Apr 17
64 °FClear.No wind27%29.94 "Hg10 mi
10:51 PM66 °FClear.14 mph25%29.92 "Hg10 mi
9:51 PM68 °FClear.16 mph22%29.92 "Hg10 mi
8:51 PM72 °FPassing clouds.14 mph15%29.88 "Hg10 mi
7:51 PM75 °FSunny.13 mph14%29.86 "Hg10 mi
6:51 PM78 °FSunny.10 mph12%29.85 "Hg10 mi
5:51 PM81 °FSunny.5 mph9%29.82 "Hg10 mi
4:51 PM80 °FSunny.7 mph10%29.82 "Hg10 mi
3:51 PM79 °FPassing clouds.6 mph10%29.83 "Hg10 mi
2:51 PM79 °FPassing clouds.5 mph10%29.85 "Hg10 mi
1:51 PM77 °FSunny.3 mph11%29.87 "Hg10 mi
12:51 PM75 °FSunny.5 mph12%29.88 "Hg10 mi
11:51 AM72 °FSunny.14 mph13%29.88 "Hg10 mi
10:51 AM69 °FSunny.9 mph17%29.89 "Hg10 mi
9:51 AM66 °FSunny.13 mph20%29.87 "Hg10 mi
8:51 AM63 °FSunny.10 mph22%29.86 "Hg10 mi
7:51 AM59 °FSunny.7 mph18%29.84 "Hg10 mi
6:51 AM54 °FClear.7 mph15%29.80 "Hg10 mi
5:51 AM60 °FPartly cloudy.10 mph9%29.75 "Hg10 mi
4:51 AM65 °FPartly cloudy.10 mph8%29.71 "Hg10 mi
3:51 AM68 °FPartly cloudy.14 mph7%29.68 "Hg10 mi
2:51 AM67 °FPartly cloudy.20 mph7%29.67 "Hg10 mi
Weather by CustomWeather, © 2014

See weather overview